Location: Huntsville
(41.2590°N, 111.7678°W)
Time: 18:39:49
(UTC+00:00)

N. Korean satellite - Pass Details

Date: 03 December 2021
Orbit: 446 x 492 km, 97.3° (Epoch: 17 January)

Event Time Altitude Azimuth Distance (km) Brightness Sun altitude
Rises 13:04:06 0° 5° (N) 2,465 10.0 -16.7°
Reaches altitude 10° 13:06:12 10° 358° (N) 1,584 9.0 -16.4°
Maximum altitude 13:09:26 43° 286° (WNW) 636 6.6 -15.8°
Drops below altitude 10° 13:12:38 10° 213° (SSW) 1,567 9.0 -15.2°
Sets 13:14:44 0° 207° (SSW) 2,449 10.0 -14.8°
